Weather History for Mayfld Grav Cnty AP, Mayfield, KY

Change the Weather History Date:

Friday, June 27, 2014

  Actual Average (KPAH) Record (KPAH)
Temperature  
Mean Temperature 74 °F 78 °F  
Max Temperature 78 °F 89 °F 104 °F (1954)
Min Temperature 69 °F 68 °F 54 °F (2004)
Degree Days  
Heating Degree Days 0 0  
Month to date heating degree days 0  
Since 1 June heating degree days 0  
Since 1 July heating degree days 4128  
Cooling Degree Days 8 13  
Month to date cooling degree days 278  
Year to date cooling degree days 450  
Since 1 June cooling degree days 278  
Growing Degree Days 24 (Base 50)    
Moisture  
Dew Point 70 °F    
Average Humidity 92    
Maximum Humidity 100    
Minimum Humidity 78    
Precipitation  
Precipitation 0.00 in 0.13 in 1.49 in (1960)
Month to date precipitation 3.65  
Year to date precipitation 24.87  
Snow  
Snow 0.00 in 0.00 in 0.00 in (2002)
Month to date snowfall 0.0  
Since 1 June snowfall 0.0  
Since 1 July snowfall 9.1  
Snow Depth -    
Sea Level Pressure  
Sea Level Pressure 30.04 in    
Wind  
Wind Speed 2 mph (South)    
Max Wind Speed 9 mph    
Max Gust Speed -    
Visibility 10 miles    
Events Rain    
T = Trace of Precipitation, MM = Missing Value Source: NWS Daily Summary

Daily Weather History Graph

Daily Weather History Graph

Search for Another Location

Airport:

Trip Planner

Search our weather history database for the weather conditions in past years. The results will help you decide how hot, cold, wet, or windy it might be!

Date:

Astronomy

Jun. 27, 2014 Rise Set
Actual Time 5:37 AM CDT 8:17 PM CDT
Civil Twilight 5:06 AM CDT 8:48 PM CDT
Nautical Twilight 4:28 AM CDT 9:26 PM CDT
Astronomical Twilight 3:45 AM CDT 10:08 PM CDT
Moon 6:05 AM CDT (6/27) 8:25 PM CDT (6/27)
Length of Visible Light 15h 41m
Length of Day
14h 39m
New Moon, 0% of the Moon is Illuminated
Jun 27
New Moon
Jul 5
First Quarter
Jul 12
Full
Jul 18
Last Quarter
Jul 26
New

Hourly Weather History & Observations

Time (CDT) Temp. Dew Point Humidity Pressure Visibility Wind Dir Wind Speed Gust Speed Precip Events Conditions
12:15 AM 69.8 °F 68.0 °F 94% 30.04 in 10.0 mi Calm Calm - N/A   Clear
12:35 AM 69.8 °F 68.0 °F 94% 30.04 in 10.0 mi Calm Calm - N/A   Clear
12:55 AM 69.8 °F 68.0 °F 94% 30.04 in 10.0 mi Calm Calm - N/A   Clear
1:15 AM 69.8 °F 68.0 °F 94% 30.04 in 10.0 mi Calm Calm - N/A   Clear
1:35 AM 69.8 °F 68.0 °F 94% 30.04 in 10.0 mi Calm Calm - N/A   Scattered Clouds
1:55 AM 69.8 °F 68.0 °F 94% 30.03 in 7.0 mi Calm Calm - N/A   Mostly Cloudy
2:15 AM 69.8 °F 68.0 °F 94% 30.03 in 7.0 mi Calm Calm - N/A   Mostly Cloudy
2:35 AM 69.8 °F 68.0 °F 94% 30.02 in 10.0 mi Calm Calm - N/A   Scattered Clouds
2:55 AM 69.8 °F 68.0 °F 94% 30.03 in 10.0 mi Calm Calm - N/A   Clear
3:15 AM 69.8 °F 68.0 °F 94% 30.02 in 10.0 mi Calm Calm - N/A   Clear
3:35 AM 69.8 °F 68.0 °F 94% 30.02 in 7.0 mi Calm Calm - N/A   Clear
3:55 AM 69.8 °F 68.0 °F 94% 30.02 in 10.0 mi Calm Calm - N/A   Clear
4:15 AM 69.8 °F 68.0 °F 94% 30.02 in 10.0 mi Calm Calm - N/A   Clear
4:35 AM 69.8 °F 68.0 °F 94% 30.03 in 10.0 mi Calm Calm - N/A   Clear
4:55 AM 69.8 °F 68.0 °F 94% 30.02 in 10.0 mi Calm Calm - N/A   Clear
5:15 AM 69.8 °F 69.8 °F 100% 30.02 in 10.0 mi SE 3.5 mph - N/A   Clear
5:35 AM 69.8 °F 69.8 °F 100% 30.02 in 10.0 mi SE 4.6 mph - N/A   Clear
5:55 AM 69.8 °F 69.8 °F 100% 30.02 in 10.0 mi Calm Calm - N/A   Clear
6:15 AM 69.8 °F 69.8 °F 100% 30.03 in 10.0 mi South 3.5 mph - N/A   Clear
6:35 AM 69.8 °F 69.8 °F 100% 30.03 in 10.0 mi SSE 3.5 mph - N/A   Clear
6:55 AM 71.6 °F 69.8 °F 94% 30.04 in 10.0 mi Calm Calm - N/A   Clear
7:15 AM 71.6 °F 69.8 °F 94% 30.04 in 10.0 mi SSE 3.5 mph - N/A   Clear
7:35 AM 71.6 °F 69.8 °F 94% 30.05 in 10.0 mi Calm Calm - N/A   Scattered Clouds
7:55 AM 71.6 °F 69.8 °F 94% 30.05 in 10.0 mi Calm Calm - N/A   Clear
8:15 AM 71.6 °F 69.8 °F 94% 30.06 in 10.0 mi South 4.6 mph - N/A   Scattered Clouds
8:35 AM 71.6 °F 69.8 °F 94% 30.07 in 10.0 mi Calm Calm - N/A   Overcast
8:55 AM 73.4 °F 69.8 °F 88% 30.07 in 10.0 mi Calm Calm - N/A   Overcast
9:15 AM 75.2 °F 71.6 °F 89% 30.08 in 10.0 mi SSW 4.6 mph - N/A   Overcast
9:35 AM 75.2 °F 71.6 °F 89% 30.08 in 10.0 mi SSW 5.8 mph - N/A   Overcast
9:55 AM 77.0 °F 71.6 °F 83% 30.08 in 10.0 mi South 4.6 mph - N/A   Overcast
10:15 AM 77.0 °F 71.6 °F 83% 30.08 in 10.0 mi South 6.9 mph - N/A   Overcast
10:35 AM 77.0 °F 71.6 °F 83% 30.08 in 10.0 mi SSE 4.6 mph - N/A   Overcast
10:55 AM 77.0 °F 71.6 °F 83% 30.08 in 10.0 mi SSE 5.8 mph - N/A   Overcast
11:15 AM 77.0 °F 71.6 °F 83% 30.07 in 10.0 mi SSE 5.8 mph - N/A   Overcast
11:35 AM 77.0 °F 71.6 °F 83% 30.06 in 10.0 mi SE 5.8 mph - N/A   Mostly Cloudy
11:55 AM 77.0 °F 71.6 °F 83% 30.06 in 10.0 mi SSE 5.8 mph - N/A   Scattered Clouds
12:15 PM 77.0 °F 71.6 °F 83% 30.05 in 10.0 mi SSE 4.6 mph - N/A   Clear
12:35 PM 78.8 °F 71.6 °F 78% 30.05 in 10.0 mi South 5.8 mph - N/A Rain Light Rain
1:15 PM 73.4 °F 68.0 °F 83% 30.06 in 10.0 mi South 6.9 mph - N/A   Mostly Cloudy
1:35 PM 73.4 °F 69.8 °F 88% 30.07 in 10.0 mi South 9.2 mph - N/A Rain Light Rain
1:55 PM 77.0 °F 69.8 °F 78% 30.05 in 10.0 mi South 6.9 mph - N/A   Scattered Clouds
2:15 PM 75.2 °F 69.8 °F 83% 30.04 in 10.0 mi SE 5.8 mph - N/A   Clear
2:35 PM 75.2 °F 69.8 °F 83% 30.05 in 10.0 mi SE 6.9 mph - N/A   Clear
2:55 PM 75.2 °F 69.8 °F 83% 30.05 in 10.0 mi SSE 4.6 mph - N/A   Scattered Clouds
3:15 PM 73.4 °F 69.8 °F 88% 30.04 in 10.0 mi SSE 4.6 mph - N/A   Clear
3:35 PM 73.4 °F 69.8 °F 88% 30.04 in 10.0 mi South 4.6 mph - N/A Rain Light Rain
3:55 PM 73.4 °F 71.6 °F 94% 30.03 in 10.0 mi South 3.5 mph - N/A Rain Light Rain
4:15 PM 73.4 °F 71.6 °F 94% 30.03 in 10.0 mi SSW 5.8 mph - N/A Rain Light Rain
4:35 PM 73.4 °F 71.6 °F 94% 30.03 in 10.0 mi SSW 5.8 mph - N/A   Light Drizzle
4:55 PM 73.4 °F 71.6 °F 94% 30.03 in 10.0 mi SSW 4.6 mph - N/A Rain Light Rain
5:15 PM 73.4 °F 71.6 °F 94% 30.03 in 10.0 mi South 3.5 mph - N/A   Light Drizzle
5:35 PM 73.4 °F 71.6 °F 94% 30.03 in 10.0 mi Calm Calm - N/A Rain Light Rain
5:55 PM 73.4 °F 71.6 °F 94% 30.02 in 10.0 mi SSE 3.5 mph - N/A Rain Light Rain
6:15 PM 73.4 °F 71.6 °F 94% 30.02 in 10.0 mi South 3.5 mph - N/A Rain Light Rain
6:35 PM 73.4 °F 71.6 °F 94% 30.02 in 10.0 mi Calm Calm - N/A   Scattered Clouds
6:55 PM 73.4 °F 71.6 °F 94% 30.03 in 10.0 mi Calm Calm - N/A   Clear
7:15 PM 73.4 °F 69.8 °F 88% 30.03 in 10.0 mi Calm Calm - N/A   Clear
7:35 PM 71.6 °F 69.8 °F 94% 30.02 in 10.0 mi Calm Calm - N/A   Clear
7:55 PM 71.6 °F 69.8 °F 94% 30.02 in 10.0 mi Calm Calm - N/A   Scattered Clouds
8:15 PM 71.6 °F 69.8 °F 94% 30.02 in 10.0 mi SE 4.6 mph - N/A   Scattered Clouds
8:35 PM 71.6 °F 69.8 °F 94% 30.03 in 10.0 mi Calm Calm - N/A   Clear
8:55 PM 71.6 °F 69.8 °F 94% 30.03 in 10.0 mi Calm Calm - N/A   Clear
9:15 PM 71.6 °F 69.8 °F 94% 30.04 in 10.0 mi Calm Calm - N/A   Scattered Clouds
9:35 PM 71.6 °F 69.8 °F 94% 30.05 in 10.0 mi Calm Calm - N/A   Overcast
9:55 PM 71.6 °F 69.8 °F 94% 30.06 in 10.0 mi Calm Calm - N/A   Overcast
10:15 PM 71.6 °F 69.8 °F 94% 30.05 in 10.0 mi Calm Calm - N/A   Overcast
10:35 PM 71.6 °F 69.8 °F 94% 30.06 in 10.0 mi Calm Calm - N/A   Mostly Cloudy
10:55 PM 69.8 °F 69.8 °F 100% 30.06 in 10.0 mi Calm Calm - N/A   Scattered Clouds
11:15 PM 69.8 °F 69.8 °F 100% 30.06 in 10.0 mi South 3.5 mph - N/A   Scattered Clouds
11:35 PM 69.8 °F 69.8 °F 100% 30.06 in 10.0 mi South 4.6 mph - N/A   Scattered Clouds
11:55 PM 69.8 °F 69.8 °F 100% 30.06 in 10.0 mi South 4.6 mph - N/A   Clear